Showing default

TEMPSAT 1, 1512

Orbit data source: Space-Track

TEMPSAT 1, 1512 is a payload satellite owned by NRL (US) in LEO that was launched on Fri, 13 Aug 1965 UTC via a THOR ABLESTAR launch vehicle from the Air Force Western Test Range (AFWTR). Payload-class satellites include a variety of spacecraft equipped with specific instruments for various scientific and technological missions. These include communications satellites like Starlink; space stations such as the ISS; scientific satellites like the Hubble; Earth observation satellites from companies like Planet Labs, Umbra, and HawkEye 360; GPS; miniature CubeSats for education and research; and military/defense satellites.

Loading next visibility...
Identifier
1512, 1965-065E
Orbit
LEO
Last TLE update
11 hours ago
Origin
Manufacturer
NRL
Mission
Operational Defense Calibration
Bus & Motor
NRL 14", Unknown motor
Mass
9 kg wet, 9 kg dry
Launch date (UTC)
1965-08-13 (60 years ago)
Launch vehicle
THOR ABLESTAR
Launch site
Air Force Western Test Range (AFWTR)
Object type
Payload
Rocket body
Debris
Shape & HBR
Sphere, 0.36 m
Radar Cross Section
0.102 m², Small (<0.1 m²)

Expand to show TLE details & history

TLE from 11 hours ago
0 TEMPSAT 1
1 01512U 65065E   25128.73696787  .00000036  00000-0  55672-4 0  9990
2 01512  89.9790 213.0171 0067880 305.2929 173.0463 13.33563324906144
Epoch: 2025-05-08T17:41Z
Definitive object data (Epoch: 2025-05-08T17:41:14.023Z)
Latitude
61.65357°
Longitude
-99.13323°
Altitude
1,194.609 km
Speed
7.238 km/s
True Right ascension
02h 11m 54s
True Declination
61° 31' 05"
Sunlit
Object was in daylight at TLE epoch
Visualization TLE readout
Latitude
-35.951°
Longitude
-99.08032°
Altitude
1,145.111 km
Speed
7.28 km/s
Apparent Right ascension
01h 43m 22s
Apparent Declination
-37° 52' 19"
Sunlit
Object is in daylight
Visualization observer readout
Local Sidereal Time
13:07:33
Azimuth
283.495° WNW
Elevation
-82.739°
Doppler factor
1
Orbital elements
Apogee altitude
1,181.395 km
Perigee altitude
1,079.458 km
Semi-major axis
7,508.563 km
Eccentricity
0.006788
Inclination
89.979°
RAAN
213.0171°
Arg. of periapsis
305.2929°
True anomaly
173.13969°
Mean anomaly
173.0463°
Eccentric anomaly
173.09307°
Mean motion
3.33586 °/min
BSTAR
0.000055672
Orbital period
107.92 mins
Loading maneuver chart data...
Loading SW <> Apogee altitude chart data...
Loading historical data...
Loading historical data...
Loading historical data...
Loading historical data...
Loading historical data...
Loading historical data...
Loading historical data...

TEMPSAT 1 Visibility forecast

Observer location: undefined°, undefined°

Span
Click to sort rows by Start time (UTC) header in descending order
Start Az.
Max El. time (UTC)
Max El. Az.
Max El.
End time (UTC)
End Az.
12 mins2025-05-09 05:47:57.263Z169.24° S2025-05-09 05:53:57.263Z71.149° E44.329°2025-05-09 05:59:57.263Z1.231° NNE
6 mins2025-05-09 07:39:57.263Z259.807° W2025-05-09 07:41:57.263Z279.351° WNW16.195°2025-05-09 07:45:57.263Z316.919° NNW
12 mins2025-05-09 17:06:57.263Z21.499° NNE2025-05-09 17:11:57.263Z76.921° E33.22°2025-05-09 17:18:57.263Z153.907° SSE
11 mins2025-05-09 18:54:57.263Z338.886° N2025-05-09 18:59:57.263Z283.175° WNW29.9°2025-05-09 19:05:57.263Z222.074° SW
|